GFSGBSN_700_temp_021.txt.gz
Temp
9 9 9 10 10 10 11 11 11 11 12 12 12 12 12 12 12 13 13 13 13 13 12 12 12 11 12 13 13 11 11 11 12 13 13 14 14 14 15 15 14 14 15 15 15 15 13
9 10 10 10 11 11 11 11 11 12 12 12 12 12 12 12 12 12 12 13 13 13 13 13 13 12 12 13 12 12 13 12 11 12 12 12 13 14 14 15 15 14 14 15 14 14 14
9 10 10 11 11 11 12 12 12 12 12 13 13 13 13 13 13 13 12 12 13 13 13 13 13 13 14 15 12 12 12 12 11 11 12 12 12 12 14 15 15 15 15 15 15 15 15
10 10 10 11 11 11 12 12 12 13 13 13 13 13 13 13 13 13 13 13 13 13 13 13 13 14 16 15 13 12 13 12 12 12 12 12 12 13 13 14 14 14 15 15 16 16 15
10 10 10 11 11 11 11 12 12 12 12 13 13 13 13 13 13 14 12 13 13 13 13 13 14 14 16 16 15 13 13 12 11 12 12 12 12 13 14 14 14 14 15 15 16 16 16
9 10 10 10 10 10 10 11 11 12 12 13 13 13 13 13 14 13 13 13 13 13 14 14 14 14 15 14 15 14 15 12 12 12 11 11 11 12 13 12 13 14 15 15 15 16 15
8 9 9 9 9 9 9 10 10 10 11 11 12 13 12 12 13 13 12 13 13 13 14 14 14 14 14 15 15 14 14 13 11 12 11 11 10 11 13 13 14 14 14 15 15 16 16
8 8 8 8 8 8 9 9 9 9 10 10 10 11 11 11 12 12 12 12 12 12 15 14 15 15 15 12 14 13 14 12 12 11 11 11 11 12 12 12 13 13 14 15 16 16 15
7 7 8 8 8 8 8 8 9 9 9 9 10 10 11 10 10 10 10 10 9 9 11 17 16 16 17 14 15 13 13 13 12 12 12 11 12 12 11 12 12 13 14 16 16 15 15
7 7 7 7 8 8 8 8 9 9 9 9 9 9 10 10 9 9 9 8 7 7 9 14 15 16 16 16 15 14 12 13 11 12 12 11 12 12 12 12 12 12 14 15 14 14 15
7 7 7 7 7 7 7 8 8 8 8 8 8 8 8 9 8 8 8 7 6 6 5 14 14 15 15 15 15 16 13 12 12 12 11 12 13 12 11 12 13 13 14 14 14 14 14
6 6 6 5 5 5 5 5 5 5 5 6 6 6 6 7 7 6 7 6 5 5 4 13 12 13 13 15 14 15 13 12 12 11 12 13 13 13 13 12 12 13 13 14 14 14 12
5 5 4 4 3 3 2 2 2 2 2 3 3 4 4 4 7 6 5 5 4 4 10 11 11 12 12 13 13 14 13 11 12 11 11 12 12 13 13 12 13 13 13 12 11 11 12
3 3 2 2 1 1 1 1 1 1 1 1 2 2 2 3 4 3 4 3 3 6 8 9 10 10 11 11 12 13 12 12 11 12 12 11 12 12 13 13 13 13 13 12 9 8 11
2 1 1 0 0 0 0 -0 -0 -0 -1 -0 -0 0 1 1 1 2 2 2 5 5 6 6 8 9 10 10 11 11 11 12 13 12 12 12 12 13 13 13 13 13 13 14 14 13 12
1 0 0 -0 -1 -1 -1 -1 -2 -2 -2 -2 -3 -2 -1 -2 -2 -1 -0 1 2 3 4 5 6 6 7 8 8 9 11 10 11 11 12 13 13 13 14 13 13 13 14 13 13 10 10
-0 -1 -1 -1 -1 -2 -2 -3 -3 -3 -3 -4 -4 -3 -4 -4 -4 -4 -3 -2 -0 2 2 2 3 3 4 4 3 4 8 7 9 11 10 11 12 13 13 13 14 13 13 13 14 14 12
-1 -1 -2 -3 -3 -3 -4 -4 -4 -4 -4 -4 -4 -4 -5 -5 -4 -4 -4 -4 -3 -2 0 -1 -0 0 0 1 1 2 4 4 6 6 8 9 10 11 12 14 15 14 14 13 14 14 14
-2 -2 -3 -3 -3 -4 -4 -5 -5 -4 -4 -5 -5 -4 -5 -5 -5 -6 -6 -5 -5 -4 -3 -2 -2 -1 -0 -1 0 1 2 3 4 4 5 6 8 10 11 12 13 13 14 14 14 14 14
-2 -3 -3 -3 -4 -4 -5 -5 -5 -5 -6 -6 -6 -6 -5 -6 -7 -7 -7 -6 -5 -5 -4 -4 -4 -3 -2 -2 -1 -0 1 2 2 3 4 3 5 6 8 12 12 13 14 15 15 14 14
-3 -3 -4 -4 -5 -5 -6 -6 -7 -7 -7 -7 -7 -7 -7 -7 -6 -7 -7 -7 -6 -6 -5 -5 -4 -4 -4 -3 -3 -2 -1 -0 1 2 2 3 3 5 6 8 10 10 12 15 14 15 15
-3 -3 -4 -4 -5 -6 -6 -7 -7 -7 -7 -7 -7 -8 -8 -7 -7 -7 -7 -7 -7 -6 -7 -5 -5 -5 -5 -4 -4 -4 -3 -1 -1 1 1 2 2 3 5 7 9 10 12 13 14 15 15
-3 -3 -4 -5 -5 -6 -6 -6 -7 -7 -7 -7 -8 -8 -8 -8 -8 -8 -7 -7 -7 -8 -6 -6 -6 -4 -4 -5 -4 -3 -4 -3 -2 -1 1 1 2 3 3 7 9 10 12 13 13 14 16
-3 -4 -4 -5 -6 -6 -6 -6 -7 -7 -7 -7 -8 -8 -8 -8 -8 -8 -8 -7 -7 -7 -7 -6 -6 -5 -4 -4 -3 -3 -3 -2 -1 -1 -0 1 1 2 1 6 6 12 13 13 14 14 16
-4 -4 -4 -5 -5 -6 -6 -7 -7 -7 -8 -7 -8 -8 -8 -8 -8 -7 -7 -7 -7 -7 -7 -6 -5 -6 -5 -4 -4 -4 -2 -0 -0 0 0 1 2 2 2 5 8 12 13 14 14 14 15
-4 -4 -5 -5 -5 -5 -6 -6 -7 -7 -8 -8 -8 -8 -8 -8 -8 -8 -7 -7 -7 -7 -6 -6 -6 -6 -6 -6 -5 -5 -5 -2 -0 0 2 1 2 3 3 4 5 11 13 15 15 15 16
-4 -4 -4 -5 -5 -5 -6 -6 -6 -7 -7 -8 -8 -8 -8 -8 -7 -7 -7 -8 -7 -7 -6 -5 -6 -5 -6 -6 -6 -6 -5 -4 -3 -0 1 -1 -0 -1 2 3 5 9 12 12 12 15 16
-4 -4 -4 -5 -5 -5 -6 -6 -6 -7 -7 -8 -8 -8 -9 -8 -6 -7 -7 -7 -7 -7 -7 -7 -7 -6 -7 -7 -6 -5 -5 -4 -3 -1 1 -0 -0 -0 1 3 4 8 10 12 13 14 16
-4 -4 -4 -4 -5 -5 -5 -5 -6 -6 -7 -7 -8 -8 -8 -8 -6 -7 -6 -7 -6 -6 -7 -7 -7 -7 -6 -6 -6 -5 -5 -4 -3 -3 0 -1 2 2 2 3 7 7 7 9 12 12 15

GFSGBSN_700_temp_024.txt.gz
Temp
9 9 9 10 10 10 10 11 11 11 11 12 12 12 12 12 12 12 12 12 12 12 12 12 12 12 12 13 12 11 11 11 12 12 13 13 13 14 14 14 14 14 15 14 14 14 14
10 10 10 10 10 10 11 11 11 11 12 12 12 12 12 13 13 13 13 12 13 13 13 12 13 13 13 14 12 11 12 12 12 12 12 12 13 14 14 14 14 14 14 15 15 15 14
10 10 10 10 10 11 11 11 11 11 12 12 12 12 13 13 13 13 13 13 13 13 13 13 13 13 14 13 12 12 12 12 11 12 12 12 12 12 14 14 14 14 14 15 15 15 15
10 10 10 10 10 10 10 10 10 11 11 11 12 12 13 13 13 13 13 13 14 13 13 13 13 13 15 14 13 13 13 12 11 11 11 11 10 11 12 12 13 13 13 14 15 15 15
9 9 9 9 9 9 9 9 9 10 10 10 11 11 11 12 13 13 14 13 13 14 14 13 14 13 14 14 14 13 12 12 12 11 11 10 9 10 11 11 12 12 13 14 15 15 15
8 8 8 8 8 8 8 9 9 9 9 10 10 10 10 11 12 12 13 13 13 13 14 13 14 14 15 14 14 14 13 11 11 11 10 10 9 10 12 11 11 12 13 14 15 15 15
7 7 7 8 8 8 8 8 9 9 9 9 10 10 10 10 10 11 12 12 12 13 13 13 14 14 14 14 13 13 13 12 11 10 10 10 9 11 13 12 13 13 13 14 14 15 15
7 7 7 8 8 8 8 9 9 9 9 9 10 10 10 10 10 10 10 11 11 11 14 13 14 15 13 13 13 13 13 12 11 11 10 9 10 12 12 12 12 13 13 14 14 14 15
7 7 7 7 7 8 8 8 8 9 9 9 9 9 10 10 9 9 9 9 9 9 11 16 15 15 15 13 14 14 13 13 12 11 11 10 11 11 11 11 11 12 13 13 13 14 14
6 6 7 7 7 7 7 7 7 8 8 8 8 8 9 10 9 8 8 8 7 6 9 13 14 14 15 14 14 13 13 13 12 12 11 10 11 11 11 11 11 12 14 13 12 13 13
6 6 6 6 6 5 5 5 5 5 5 5 5 5 7 8 10 8 7 7 7 5 4 12 11 12 13 13 13 14 12 12 12 13 11 11 11 11 10 12 11 12 13 13 13 12 13
5 4 4 4 4 4 3 3 3 3 3 3 3 3 4 5 6 6 6 5 5 5 3 10 10 11 12 12 12 12 11 11 11 11 12 12 12 11 12 12 12 12 11 12 12 12 10
3 3 3 2 2 2 2 1 1 1 1 1 1 2 2 3 4 5 4 4 4 4 9 8 9 10 10 11 11 12 12 10 11 10 10 11 11 12 12 11 11 11 11 11 10 9 11
2 2 2 1 1 1 0 0 0 0 0 0 -0 -0 0 1 2 3 2 2 2 5 6 7 8 8 9 10 10 10 11 10 10 11 11 10 10 11 12 12 12 11 11 11 7 7 11
2 2 2 1 1 0 0 -0 -0 -1 -1 -1 -1 -1 -1 -1 -0 0 1 1 3 2 2 4 7 7 8 8 9 10 10 9 10 10 11 11 11 13 12 12 12 11 11 12 12 10 10
2 1 1 0 -0 -1 -1 -1 -2 -2 -2 -2 -2 -2 -2 -2 -3 -3 -2 -0 0 -0 -0 1 4 4 5 6 8 9 9 8 9 10 10 11 11 12 14 12 12 12 12 11 11 9 8
1 0 -0 -1 -1 -2 -2 -2 -3 -3 -3 -3 -3 -3 -4 -4 -4 -4 -4 -4 -3 -2 -2 -1 -1 0 1 3 4 6 4 6 7 9 9 10 10 12 12 11 12 12 12 12 12 12 7
-0 -1 -1 -2 -2 -3 -4 -4 -4 -4 -4 -4 -4 -5 -5 -5 -5 -6 -6 -6 -5 -3 -3 -3 -2 -2 -1 0 2 3 3 3 4 5 7 8 9 10 11 12 13 13 13 12 13 12 12
-1 -2 -2 -2 -3 -3 -4 -4 -5 -5 -5 -5 -5 -5 -5 -5 -6 -6 -6 -6 -6 -5 -3 -4 -3 -3 -2 -2 0 1 2 2 2 3 4 5 6 8 9 11 12 12 12 12 13 13 12
-2 -2 -2 -3 -3 -4 -4 -5 -5 -6 -6 -6 -6 -6 -6 -7 -7 -7 -6 -6 -6 -6 -5 -5 -4 -4 -3 -2 -2 -1 0 0 1 2 3 3 3 4 5 8 7 11 12 12 12 12 12
-2 -2 -2 -3 -3 -4 -4 -5 -6 -6 -6 -7 -7 -7 -7 -7 -7 -7 -7 -7 -7 -6 -6 -5 -5 -5 -5 -3 -3 -2 -1 -0 0 1 1 2 2 3 3 5 6 7 10 11 11 12 12
-2 -3 -3 -4 -4 -4 -5 -6 -6 -7 -7 -7 -8 -8 -8 -8 -8 -9 -8 -8 -8 -8 -7 -6 -6 -5 -5 -5 -5 -4 -3 -2 -1 -0 1 1 1 2 3 4 6 7 8 9 10 10 10
-2 -3 -3 -4 -4 -4 -5 -5 -6 -7 -7 -7 -8 -8 -8 -8 -8 -8 -8 -8 -7 -8 -7 -7 -6 -6 -6 -5 -5 -5 -5 -3 -2 -2 -0 0 0 1 2 3 4 7 8 9 10 10 11
-3 -3 -3 -4 -4 -5 -5 -5 -6 -7 -7 -8 -8 -8 -9 -9 -8 -8 -8 -8 -7 -8 -8 -6 -7 -7 -6 -5 -4 -4 -3 -3 -3 -2 -2 -1 -1 0 1 2 3 7 9 11 12 12 12
-3 -3 -3 -4 -4 -4 -5 -6 -6 -7 -7 -7 -8 -8 -9 -9 -8 -7 -7 -8 -7 -8 -8 -7 -7 -7 -7 -6 -5 -4 -3 -3 -1 -1 -1 -1 -1 -1 1 3 4 7 9 10 11 13 14
-3 -3 -3 -4 -4 -4 -5 -5 -6 -7 -7 -8 -8 -8 -9 -9 -8 -8 -8 -8 -8 -8 -7 -7 -7 -7 -7 -7 -6 -6 -5 -4 -3 -1 -0 0 -0 -2 0 2 2 7 9 9 10 10 13
-3 -3 -4 -4 -4 -4 -5 -5 -6 -6 -7 -7 -8 -8 -8 -8 -7 -8 -8 -9 -8 -8 -8 -8 -7 -7 -7 -7 -7 -6 -6 -5 -4 -2 -1 -2 -4 -3 -2 0 4 6 9 10 10 11 13
-3 -3 -3 -4 -4 -4 -5 -5 -6 -6 -6 -7 -7 -8 -8 -8 -6 -6 -7 -8 -8 -8 -8 -8 -8 -7 -7 -7 -7 -7 -6 -5 -5 -3 -2 -2 -2 -3 -4 -0 1 5 6 8 10 11 13
-2 -3 -3 -3 -4 -4 -4 -5 -5 -6 -6 -7 -6 -8 -8 -8 -6 -7 -7 -6 -6 -6 -7 -7 -7 -8 -7 -7 -6 -6 -6 -6 -5 -5 -3 -4 -2 -1 -1 -0 4 5 8 8 10 11 13

GFSGBSN_700_temp_030.txt.gz
Temp
9 9 9 9 9 9 9 9 10 10 10 10 11 11 11 12 12 12 13 12 12 12 13 13 13 13 13 13 13 12 12 12 12 12 12 12 13 13 11 12 12 13 13 13 13 13 14
8 8 8 8 9 9 9 9 9 9 9 10 10 10 11 11 12 12 13 13 13 13 13 13 13 13 13 13 13 11 12 12 12 12 12 12 12 11 11 11 12 13 12 13 13 14 14
8 8 8 8 8 8 9 9 9 9 9 10 10 10 10 10 11 12 12 13 13 13 13 13 13 13 13 12 12 13 13 12 11 11 12 12 11 10 11 11 12 12 13 14 14 14 14
8 8 8 8 8 8 8 9 9 9 9 10 10 10 10 10 11 11 11 12 12 13 13 13 13 13 14 13 13 13 13 12 11 11 10 9 11 10 10 11 12 13 13 15 15 15 15
8 8 8 8 8 8 8 8 9 9 9 9 10 10 10 10 10 11 11 11 12 12 13 13 13 13 13 13 13 12 12 12 11 11 10 8 9 9 10 10 12 13 15 16 16 15 15
7 7 7 7 8 8 8 8 8 8 9 9 9 10 10 10 10 10 11 11 11 12 12 12 12 12 13 13 14 13 12 11 11 10 11 10 10 9 10 11 14 15 15 16 16 16 15
7 7 7 7 7 7 6 6 6 7 7 7 8 8 9 9 10 10 10 11 11 12 12 12 12 12 13 14 13 13 12 11 10 10 10 9 9 11 12 12 13 15 15 15 16 16 15
6 6 6 6 6 5 5 5 5 5 5 5 6 6 7 7 8 9 9 9 10 9 12 12 12 12 12 12 13 12 12 11 11 9 9 9 10 11 11 12 12 13 14 15 16 15 15
5 5 5 5 5 5 4 4 4 4 4 4 4 4 5 5 5 6 7 7 8 8 9 13 13 13 13 11 12 13 12 11 11 9 10 11 12 11 11 11 11 12 13 15 15 16 15
5 5 4 4 4 3 3 3 3 3 3 3 3 3 3 4 4 4 5 5 6 6 7 9 12 12 13 11 11 11 12 11 9 10 10 11 12 11 11 11 11 12 13 13 14 15 15
4 4 4 4 3 3 3 3 3 3 3 3 2 2 2 2 2 2 2 3 4 4 10 9 9 9 11 10 10 11 11 9 10 10 10 11 11 11 11 12 12 13 13 13 13 14 14
4 4 3 3 3 3 3 2 2 2 2 2 2 2 1 1 1 1 2 2 2 3 9 9 7 7 8 9 7 8 9 8 9 11 11 12 11 12 12 11 11 12 13 12 12 14 16
4 3 4 3 3 3 2 2 2 2 2 1 1 1 1 0 -1 -0 1 1 1 5 7 6 5 5 6 8 7 7 7 8 9 10 11 11 12 11 12 12 11 11 12 14 15 16 17
3 4 4 3 2 2 1 1 1 0 0 0 0 -0 -0 -1 -1 -1 -0 -2 2 5 2 1 2 3 6 7 7 8 8 8 9 11 13 12 12 12 12 12 12 12 13 16 16 18 18
3 3 2 2 1 0 0 0 -0 -1 -1 -1 -1 -1 -1 -2 -2 -2 -1 -0 2 -1 -3 -2 2 5 7 6 7 7 8 10 10 11 12 13 13 13 12 12 12 12 12 15 17 16 17
3 2 2 1 0 -0 0 -0 -1 -1 -1 -1 -2 -2 -2 -2 -3 -2 -3 -2 -3 -4 -4 -2 1 2 4 5 5 7 9 7 10 10 10 12 14 13 12 12 12 13 13 14 15 16 16
2 2 2 1 0 -0 -0 -1 -1 -2 -2 -2 -2 -4 -3 -3 -3 -4 -3 -4 -5 -5 -5 -3 -1 -1 1 2 3 6 6 4 7 7 7 9 12 14 13 12 13 12 13 14 15 16 19
2 1 1 1 0 -0 -1 -1 -2 -2 -3 -3 -3 -4 -4 -4 -5 -5 -5 -6 -6 -5 -5 -4 -3 -2 -1 -0 2 4 4 2 2 3 7 8 11 13 13 13 13 13 13 13 15 15 15
1 0 0 1 0 -1 -1 -2 -3 -4 -4 -4 -4 -4 -5 -5 -6 -6 -6 -6 -6 -6 -5 -5 -5 -3 -3 -1 0 1 1 0 2 2 5 6 9 12 14 13 13 13 13 14 14 15 16
0 -0 -0 -1 -1 -1 -2 -2 -3 -3 -4 -5 -5 -6 -6 -7 -7 -7 -7 -6 -6 -6 -6 -6 -6 -5 -4 -2 -1 -0 1 -0 1 1 3 5 8 11 14 14 13 13 13 13 14 14 16
-0 -1 -1 -2 -2 -2 -3 -3 -4 -4 -4 -5 -7 -8 -7 -7 -7 -8 -7 -7 -6 -6 -7 -6 -6 -6 -6 -4 -2 -1 -2 -1 -0 1 1 3 7 6 9 7 8 12 13 13 14 14 15
-1 -1 -1 -2 -2 -3 -3 -4 -4 -4 -5 -5 -6 -7 -8 -7 -8 -8 -7 -7 -7 -8 -8 -7 -7 -7 -7 -6 -6 -5 -5 -2 -1 -1 0 1 5 4 6 7 7 8 9 10 12 13 14
-1 -1 -1 -2 -2 -3 -3 -4 -4 -4 -5 -6 -6 -7 -8 -7 -8 -8 -7 -8 -8 -9 -7 -7 -7 -7 -6 -7 -6 -6 -6 -5 -4 -3 -1 -0 3 4 7 7 7 7 8 9 10 10 11
-1 -1 -2 -2 -2 -3 -3 -4 -4 -4 -5 -6 -7 -7 -7 -7 -8 -8 -8 -8 -9 -8 -8 -8 -8 -7 -7 -7 -5 -5 -5 -4 -3 -3 -2 -1 0 3 6 7 7 10 11 10 10 10 11
-1 -1 -2 -2 -2 -3 -3 -4 -4 -4 -5 -6 -6 -7 -7 -7 -8 -7 -8 -8 -8 -9 -8 -8 -8 -8 -8 -6 -5 -4 -2 -2 -2 -2 -2 -2 -1 2 4 6 8 9 8 8 9 10 10
-1 -1 -1 -2 -2 -3 -3 -3 -4 -4 -4 -6 -6 -7 -7 -7 -7 -8 -8 -8 -9 -9 -8 -7 -8 -8 -8 -7 -6 -4 -1 -0 0 -0 -1 -1 -1 0 4 5 8 9 9 7 8 9 9
-0 -1 -1 -2 -2 -2 -3 -3 -3 -4 -4 -6 -6 -6 -6 -6 -6 -7 -7 -8 -8 -8 -9 -8 -8 -8 -8 -6 -5 -4 -3 -2 -1 -0 -0 -1 -1 -0 1 3 5 7 6 5 7 9 8
-0 -1 -1 -1 -2 -2 -2 -2 -3 -4 -4 -5 -5 -6 -6 -6 -5 -6 -7 -6 -7 -8 -8 -8 -8 -7 -8 -7 -5 -4 -3 -2 -2 -1 -0 0 -0 0 0 2 4 4 5 5 6 5 5
-0 -1 -1 -1 -1 -2 -2 -1 -2 -3 -4 -4 -5 -5 -6 -6 -5 -6 -6 -7 -7 -7 -8 -8 -8 -8 -7 -7 -7 -6 -5 -5 -4 -2 -2 -2 -1 1 1 2 2 2 3 4 4 7 7

GFSGBSN_700_temp_033.txt.gz
Temp
9 9 9 9 9 9 9 9 9 9 10 10 10 10 11 11 11 12 12 12 12 13 13 13 13 13 13 13 13 13 12 12 12 13 13 11 10 11 12 14 14 14 15 15 15 16 16
8 8 8 8 9 9 9 9 9 9 9 10 10 10 10 11 11 11 12 12 12 13 13 13 13 13 13 13 13 12 12 12 12 12 12 10 11 11 13 14 14 15 15 15 15 16 16
8 8 8 8 8 8 9 9 9 9 9 10 10 10 10 10 11 11 11 12 12 12 13 13 13 13 13 13 13 13 13 12 12 12 10 10 11 11 13 13 14 15 15 15 15 16 16
7 8 8 8 8 8 8 8 8 9 9 9 9 9 10 10 11 11 11 11 12 12 12 13 13 13 14 13 13 13 13 12 11 11 10 10 11 12 12 14 14 14 15 16 16 16 16
7 7 7 7 7 7 7 7 7 8 8 8 8 8 9 9 10 10 11 11 11 12 12 12 13 13 13 14 13 13 13 12 10 10 9 11 11 11 12 13 14 15 16 16 17 17 17
7 6 6 6 6 6 6 6 7 6 6 7 7 7 7 8 8 10 10 11 11 12 12 12 12 12 13 13 13 13 12 11 9 9 9 10 11 11 12 13 15 16 16 18 18 18 17
6 6 6 6 6 6 6 6 5 5 5 5 5 5 5 6 7 7 9 9 11 12 12 11 10 13 11 11 13 13 12 11 9 9 10 10 11 12 13 13 15 16 17 18 19 18 18
6 6 6 5 5 5 5 5 5 5 5 5 5 5 5 5 5 5 6 7 7 8 11 11 12 12 12 10 11 12 11 10 10 10 10 10 11 12 13 14 14 15 17 18 18 19 18
5 5 5 5 5 5 5 5 4 4 4 4 4 4 4 4 4 4 4 5 5 6 7 13 12 12 12 11 12 10 11 10 10 11 11 13 13 13 13 14 14 15 16 18 18 18 18
5 5 5 5 4 5 4 4 4 4 4 4 4 4 4 4 3 3 2 3 4 4 5 9 12 12 12 11 11 11 11 11 11 11 12 12 14 14 13 14 15 16 16 16 17 18 19
5 5 5 5 4 4 4 4 4 4 4 3 3 3 3 3 3 3 2 2 3 2 9 11 8 9 9 10 12 12 10 10 12 12 12 13 14 14 14 14 15 15 16 16 16 17 17
5 5 4 4 4 4 4 3 3 3 2 3 3 3 2 2 1 1 1 1 2 2 9 11 9 8 8 8 10 11 10 10 11 12 13 13 14 14 14 14 15 15 15 16 16 16 18
4 4 4 4 3 3 2 2 1 1 1 1 1 2 2 1 1 1 0 -0 1 4 10 8 7 8 9 10 9 11 10 9 11 12 13 13 14 14 14 14 14 14 15 16 17 18 18
4 4 4 3 3 2 2 1 1 0 0 0 1 1 1 0 -1 -0 -0 -1 2 5 4 2 2 4 5 9 10 11 10 10 10 12 14 14 14 14 14 15 15 14 15 17 17 19 20
3 3 3 3 2 2 2 1 0 -0 0 0 1 0 -2 -1 -1 -1 -2 0 3 1 -1 -0 2 6 8 9 10 11 11 11 11 12 13 15 15 15 15 14 15 15 15 17 19 19 21
3 2 2 2 1 1 1 1 0 -1 -1 -0 -0 -2 -3 -2 -1 -3 -1 0 0 -2 -2 -1 1 4 6 7 9 10 12 11 11 12 12 15 16 16 15 14 14 16 15 16 17 19 20
2 1 1 1 1 1 1 1 0 -0 -1 -1 -0 -2 -2 -2 -3 -1 -0 -0 -2 -2 -2 -2 -1 -0 0 0 2 8 11 8 9 10 12 13 14 16 16 15 15 15 16 16 17 18 21
1 1 1 1 0 0 -0 -0 -0 -1 -1 -2 -2 -2 -3 -2 -2 -1 -1 -3 -3 -3 -2 -2 -2 -0 0 -1 -0 3 6 6 5 8 11 12 13 14 16 15 15 15 16 16 17 18 19
1 0 0 -0 -0 -1 -1 -1 -1 -1 -2 -2 -3 -3 -3 -4 -3 -2 -3 -3 -4 -3 -3 -3 -3 -3 -3 -2 -2 -1 1 2 3 5 7 9 11 14 16 16 15 15 16 16 16 18 18
0 0 -0 -1 -1 -1 -1 -1 -2 -2 -2 -3 -5 -3 -3 -3 -3 -4 -4 -4 -4 -5 -4 -4 -4 -4 -4 -2 -1 -0 -1 0 2 3 4 6 10 12 17 17 16 15 16 16 17 17 18
0 -0 -1 -1 -1 -1 -2 -2 -2 -2 -3 -4 -6 -5 -6 -5 -5 -5 -5 -5 -5 -5 -4 -4 -4 -5 -4 -4 -3 -3 -2 -0 2 2 4 6 8 11 13 16 15 16 15 16 16 17 18
0 -0 -1 -1 -1 -2 -2 -3 -3 -3 -3 -5 -6 -7 -6 -7 -6 -6 -5 -5 -5 -5 -5 -4 -4 -5 -5 -4 -4 -4 -4 -3 -1 -0 2 5 6 9 11 13 12 12 15 16 16 16 17
0 -0 -1 -1 -1 -2 -2 -3 -3 -4 -4 -4 -6 -6 -7 -6 -7 -6 -6 -5 -6 -5 -5 -5 -5 -5 -5 -5 -5 -4 -4 -3 -2 -1 0 2 6 8 10 11 11 11 13 15 16 16 16
0 -0 -1 -1 -1 -2 -2 -3 -3 -4 -4 -5 -6 -6 -7 -6 -7 -7 -6 -6 -6 -6 -6 -6 -5 -5 -5 -5 -4 -4 -3 -2 -2 -1 0 1 3 5 8 9 11 12 13 13 14 14 15
-0 -0 -1 -1 -1 -1 -2 -2 -3 -3 -4 -5 -6 -6 -7 -6 -7 -6 -6 -6 -7 -7 -6 -5 -5 -5 -5 -5 -4 -2 -1 -0 -0 0 1 1 2 5 7 10 12 12 12 12 12 12 13
-0 -0 -1 -1 -1 -1 -2 -2 -3 -3 -4 -5 -5 -6 -6 -6 -6 -6 -6 -7 -7 -6 -6 -6 -6 -6 -6 -5 -5 -3 1 2 3 2 1 2 1 2 6 9 11 11 11 10 11 12 12
0 -0 -1 -0 -1 -1 -1 -1 -2 -3 -4 -4 -4 -5 -6 -6 -5 -6 -6 -6 -7 -7 -7 -7 -7 -6 -5 -6 -5 -3 0 0 2 3 2 2 2 3 4 6 8 10 10 10 10 10 11
0 -0 -0 -0 -0 -1 -1 -1 -2 -3 -3 -3 -4 -5 -6 -5 -4 -5 -6 -6 -7 -7 -7 -7 -7 -5 -5 -5 -4 -3 -1 0 1 2 3 2 3 3 4 5 6 7 7 9 8 7 6
0 0 0 0 0 -0 -0 -1 -2 -2 -2 -3 -3 -5 -6 -5 -5 -5 -5 -5 -6 -6 -7 -7 -7 -6 -6 -6 -6 -5 -3 -2 -2 0 1 1 2 4 4 5 5 5 5 6 5 4 5